• In Uzbekistan
  • List of Countries
  • For 7 days
  • Water Temperature
  • Satellite Maps
  • Weather Map
  • Weather Widgets
  • user-avatar
    Login

    Hourly Weather Dankon

    Today, 20 February, Tuesday

    Time Temperature Precipitation Wind Pressure Humidity
    00:00 +23°C° 0 mm 1 mps 702 mmHg 68%
    01:00 +20°C° 0 mm 0 mps 703 mmHg 80%
    02:00 +20°C° 0 mm 0 mps 702 mmHg 82%
    03:00 +20°C° 0 mm 0 mps 702 mmHg 84%
    04:00 +19°C° 0 mm 0 mps 702 mmHg 85%
    05:00 +19°C° 0 mm 0 mps 702 mmHg 86%
    06:00 +19°C° 0 mm 0 mps 703 mmHg 87%
    07:00 +20°C° 0 mm 0 mps 703 mmHg 87%
    08:00 +23°C° 0.1 mm 0 mps 703 mmHg 74%
    09:00 +26°C° 0.1 mm 0 mps 704 mmHg 61%
    10:00 +31°C° 0.1 mm 1 mps 704 mmHg 49%
    11:00 +32°C° 0 mm 1 mps 704 mmHg 44%
    12:00 +33°C° 0 mm 1 mps 703 mmHg 39%
    13:00 +34°C° 0 mm 1 mps 703 mmHg 33%
    14:00 +34°C° 0 mm 1 mps 702 mmHg 32%
    15:00 +34°C° 0 mm 1 mps 702 mmHg 30%
    16:00 +34°C° 0 mm 1 mps 701 mmHg 28%
    17:00 +31°C° 0 mm 1 mps 701 mmHg 35%
    18:00 +27°C° 0 mm 0 mps 701 mmHg 41%
    19:00 +24°C° 0 mm 0 mps 701 mmHg 47%
    20:00 +24°C° 0 mm 0 mps 701 mmHg 49%
    21:00 +23°C° 0 mm 0 mps 701 mmHg 52%
    22:00 +22°C° 0 mm 0 mps 702 mmHg 55%
    23:00 +22°C° 0 mm 0 mps 702 mmHg 57%

    Tomorrow, 21 February, Wednesday

    Time Temperature Precipitation Wind Pressure Humidity
    00:00 +21°C° 0 mm 0 mps 701 mmHg 60%
    01:00 +21°C° 0 mm 0 mps 701 mmHg 62%
    02:00 +21°C° 0 mm 0 mps 701 mmHg 65%
    03:00 +20°C° 0 mm 0 mps 701 mmHg 68%
    04:00 +20°C° 0 mm 0 mps 701 mmHg 71%
    05:00 +20°C° 0 mm 0 mps 701 mmHg 73%
    06:00 +19°C° 0 mm 0 mps 701 mmHg 75%
    07:00 +19°C° 0 mm 0 mps 701 mmHg 77%
    08:00 +23°C° 0.2 mm 0 mps 702 mmHg 68%
    09:00 +26°C° 0.2 mm 0 mps 703 mmHg 59%
    10:00 +31°C° 0.2 mm 1 mps 704 mmHg 51%
    11:00 +32°C° 0.6 mm 1 mps 703 mmHg 47%
    12:00 +33°C° 0.6 mm 1 mps 702 mmHg 44%
    13:00 +33°C° 0.6 mm 1 mps 702 mmHg 41%
    14:00 +33°C° 0.2 mm 1 mps 701 mmHg 40%
    15:00 +33°C° 0.2 mm 1 mps 701 mmHg 38%
    16:00 +33°C° 0.2 mm 1 mps 700 mmHg 37%
    17:00 +31°C° 0.2 mm 1 mps 700 mmHg 46%
    18:00 +28°C° 0.2 mm 1 mps 700 mmHg 56%
    19:00 +23°C° 0.2 mm 0 mps 700 mmHg 66%
    20:00 +25°C° 0.4 mm 1 mps 700 mmHg 70%
    21:00 +24°C° 0.4 mm 1 mps 701 mmHg 75%
    22:00 +23°C° 0.4 mm 1 mps 701 mmHg 80%
    23:00 +22°C° 0 mm 1 mps 701 mmHg 82%

    Day after tomorrow, 22 February, Thursday

    Time Temperature Precipitation Wind Pressure Humidity
    00:00 +22°C° 0 mm 1 mps 701 mmHg 84%
    01:00 +22°C° 0 mm 1 mps 701 mmHg 86%
    02:00 +21°C° 0 mm 1 mps 701 mmHg 87%
    03:00 +21°C° 0 mm 1 mps 700 mmHg 89%
    04:00 +19°C° 0 mm 0 mps 700 mmHg 90%
    05:00 +19°C° 0 mm 0 mps 701 mmHg 91%
    06:00 +19°C° 0 mm 0 mps 701 mmHg 91%
    07:00 +18°C° 0 mm 0 mps 701 mmHg 92%
    08:00 +21°C° 0.5 mm 0 mps 702 mmHg 81%
    09:00 +24°C° 0.5 mm 0 mps 703 mmHg 70%
    10:00 +27°C° 0.5 mm 0 mps 704 mmHg 59%
    11:00 +31°C° 0.6 mm 1 mps 703 mmHg 55%
    12:00 +32°C° 0.6 mm 1 mps 703 mmHg 50%
    13:00 +33°C° 0.6 mm 1 mps 702 mmHg 45%
    14:00 +32°C° 0.2 mm 1 mps 702 mmHg 44%
    15:00 +32°C° 0.2 mm 1 mps 701 mmHg 43%
    16:00 +32°C° 0.2 mm 1 mps 701 mmHg 41%
    17:00 +29°C° 0.2 mm 1 mps 701 mmHg 51%
    18:00 +27°C° 0.2 mm 1 mps 701 mmHg 61%
    19:00 +22°C° 0.2 mm 0 mps 701 mmHg 71%
    20:00 +23°C° 0.6 mm 1 mps 702 mmHg 76%
    21:00 +23°C° 0.6 mm 1 mps 702 mmHg 82%
    22:00 +22°C° 0.6 mm 1 mps 703 mmHg 87%
    23:00 +21°C° 0.3 mm 1 mps 703 mmHg 89%

    23 February, Friday

    Time Temperature Precipitation Wind Pressure Humidity
    00:00 +21°C° 0.3 mm 1 mps 703 mmHg 91%
    01:00 +20°C° 0.3 mm 1 mps 703 mmHg 93%
    02:00 +20°C° 0.4 mm 1 mps 702 mmHg 94%
    03:00 +20°C° 0.4 mm 1 mps 702 mmHg 95%
    04:00 +20°C° 0.4 mm 1 mps 702 mmHg 96%
    05:00 +20°C° 0.1 mm 1 mps 702 mmHg 96%
    06:00 +19°C° 0.1 mm 1 mps 703 mmHg 96%
    07:00 +17°C° 0.1 mm 0 mps 703 mmHg 96%
    08:00 +22°C° 0.3 mm 1 mps 704 mmHg 86%
    09:00 +25°C° 0.3 mm 1 mps 705 mmHg 76%
    10:00 +27°C° 0.3 mm 1 mps 706 mmHg 66%
    11:00 +28°C° 0.9 mm 1 mps 705 mmHg 62%
    12:00 +29°C° 0.9 mm 1 mps 704 mmHg 58%
    13:00 +30°C° 0.9 mm 1 mps 704 mmHg 54%
    14:00 +30°C° 1.2 mm 1 mps 703 mmHg 56%
    15:00 +29°C° 1.2 mm 1 mps 702 mmHg 57%
    16:00 +29°C° 1.2 mm 1 mps 702 mmHg 59%
    17:00 +27°C° 1.1 mm 1 mps 702 mmHg 66%
    18:00 +25°C° 1.1 mm 1 mps 702 mmHg 73%
    19:00 +23°C° 1.1 mm 1 mps 703 mmHg 80%
    20:00 +22°C° 0.2 mm 1 mps 703 mmHg 83%
    21:00 +22°C° 0.2 mm 1 mps 703 mmHg 86%
    22:00 +21°C° 0.2 mm 1 mps 704 mmHg 89%
    23:00 +21°C° 0 mm 1 mps 704 mmHg 91%

    24 February, Saturday

    Time Temperature Precipitation Wind Pressure Humidity
    00:00 +20°C° 0 mm 1 mps 704 mmHg 92%
    01:00 +20°C° 0 mm 1 mps 703 mmHg 94%
    02:00 +18°C° 0.1 mm 0 mps 703 mmHg 95%
    03:00 +18°C° 0.1 mm 0 mps 703 mmHg 95%
    04:00 +17°C° 0.1 mm 0 mps 703 mmHg 96%
    05:00 +17°C° 0 mm 0 mps 704 mmHg 96%
    06:00 +17°C° 0 mm 0 mps 704 mmHg 96%
    07:00 +17°C° 0 mm 0 mps 705 mmHg 96%
    08:00 +21°C° 0 mm 0 mps 706 mmHg 82%
    09:00 +24°C° 0 mm 0 mps 706 mmHg 69%
    10:00 +28°C° 0 mm 0 mps 707 mmHg 55%
    11:00 +29°C° 0.1 mm 0 mps 706 mmHg 49%
    12:00 +32°C° 0.1 mm 1 mps 705 mmHg 43%
    13:00 +34°C° 0.1 mm 1 mps 705 mmHg 38%
    14:00 +33°C° 0 mm 1 mps 704 mmHg 38%
    15:00 +33°C° 0 mm 1 mps 703 mmHg 37%
    16:00 +32°C° 0 mm 1 mps 703 mmHg 37%
    17:00 +30°C° 0 mm 1 mps 703 mmHg 46%
    18:00 +28°C° 0 mm 1 mps 703 mmHg 54%
    19:00 +25°C° 0 mm 1 mps 703 mmHg 62%
    20:00 +24°C° 0 mm 1 mps 703 mmHg 66%
    21:00 +24°C° 0 mm 1 mps 704 mmHg 71%
    22:00 +23°C° 0 mm 1 mps 704 mmHg 75%
    23:00 +23°C° 0 mm 1 mps 704 mmHg 77%

    25 February, Sunday

    Time Temperature Precipitation Wind Pressure Humidity
    00:00 +22°C° 0 mm 1 mps 704 mmHg 80%
    01:00 +20°C° 0 mm 0 mps 703 mmHg 82%
    02:00 +19°C° 0 mm 0 mps 703 mmHg 84%
    03:00 +19°C° 0 mm 0 mps 703 mmHg 85%
    04:00 +19°C° 0 mm 0 mps 703 mmHg 87%
    05:00 +18°C° 0 mm 0 mps 703 mmHg 87%
    06:00 +18°C° 0 mm 0 mps 703 mmHg 87%
    07:00 +18°C° 0 mm 0 mps 704 mmHg 87%
    08:00 +22°C° 0 mm 0 mps 705 mmHg 74%
    09:00 +26°C° 0 mm 0 mps 705 mmHg 60%
    10:00 +30°C° 0 mm 0 mps 706 mmHg 46%
    11:00 +31°C° 0 mm 0 mps 705 mmHg 40%
    12:00 +33°C° 0 mm 0 mps 705 mmHg 35%
    13:00 +36°C° 0 mm 1 mps 704 mmHg 29%
    14:00 +35°C° 0 mm 1 mps 703 mmHg 30%
    15:00 +34°C° 0 mm 1 mps 702 mmHg 31%
    16:00 +33°C° 0 mm 1 mps 702 mmHg 32%
    17:00 +31°C° 0 mm 1 mps 702 mmHg 39%
    18:00 +29°C° 0 mm 1 mps 702 mmHg 45%
    19:00 +25°C° 0 mm 0 mps 702 mmHg 51%
    20:00 +26°C° 0 mm 1 mps 702 mmHg 55%
    21:00 +25°C° 0 mm 1 mps 703 mmHg 59%
    22:00 +25°C° 0 mm 1 mps 703 mmHg 64%
    23:00 +24°C° 0 mm 1 mps 703 mmHg 67%
    Show more